This is the latest recevied weather packets stored in our database for station/object BV3BA-13. If no packets are shown the sender has not sent any weather packets the latest 10 day(s).
| Time | Temp. | Humidity | Pressure | Rain* | Wind** | Luminosity | Snow |
|---|---|---|---|---|---|---|---|
| 1778135824 | 28.89° C | 73% | 1006.8 hPa | 0 mm | - | - | - |
| 1778135223 | 28.89° C | 73% | 1007 hPa | 0 mm | - | - | - |
| 1778134624 | 27.78° C | 75% | 1007.1 hPa | 0 mm | - | - | - |
| 1778134024 | 27.78° C | 74% | 1007.2 hPa | 0 mm | - | - | - |
| 1778133424 | 27.78° C | 75% | 1007.3 hPa | 0 mm | - | - | - |
| 1778132824 | 27.22° C | 75% | 1007.5 hPa | 0 mm | - | - | - |
| 1778132224 | 27.78° C | 76% | 1007.6 hPa | 0 mm | - | - | - |
| 1778131624 | 27.78° C | 76% | 1007.8 hPa | 0 mm | - | - | - |
| 1778131023 | 27.78° C | 74% | 1007.9 hPa | 0 mm | - | - | - |
| 1778130424 | 27.22° C | 78% | 1008.1 hPa | 0 mm | - | - | - |
| 1778129824 | 27.22° C | 78% | 1008.3 hPa | 0 mm | - | - | - |
| 1778129224 | 27.22° C | 77% | 1008.4 hPa | 0 mm | - | - | - |
| 1778128623 | 27.78° C | 76% | 1008.4 hPa | 0 mm | - | - | - |
| 1778128024 | 28.33° C | 76% | 1008.6 hPa | 0 mm | - | - | - |
| 1778127423 | 27.22° C | 78% | 1008.6 hPa | 0 mm | - | - | - |
| 1778126824 | 27.78° C | 77% | 1008.7 hPa | 0 mm | - | - | - |
| 1778126223 | 27.78° C | 76% | 1008.8 hPa | 0 mm | - | - | - |
| 1778125623 | 27.78° C | 75% | 1008.9 hPa | 0 mm | - | - | - |
| 1778125024 | 27.78° C | 77% | 1009 hPa | 0 mm | - | - | - |
| 1778124424 | 27.78° C | 75% | 1009.1 hPa | 0 mm | - | - | - |
| 1778123824 | 27.78° C | 77% | 1009.2 hPa | 0 mm | - | - | - |
| 1778123224 | 27.78° C | 72% | 1009.3 hPa | 0 mm | - | - | - |
| 1778122624 | 27.22° C | 74% | 1009.4 hPa | 0 mm | - | - | - |
| 1778122024 | 26.67° C | 76% | 1009.5 hPa | 0 mm | - | - | - |
| 1778121423 | 26.67° C | 77% | 1009.5 hPa | 0 mm | - | - | - |
* Rain latest hour (hover to see other rain measurements)
** Current wind speed in m/s (hover to see current wind gust speed)